User: anonymous   Login
Location: Unspecified
(0.0000°N, 0.0000°E)
Time: 11:28:11
(UTC+00:00)
Language:

COSMOS-2409 - Orbit

View from above orbital plane
View from above orbital plane
View from above satellite
View from above satellite

Ground track
Ground track

The orbit data is extracted from the following two-line orbital elements,

1 28420U 04037B   24110.91022908  .00000043  00000-0  23266-3 0  9998
2 28420  82.4795 102.5640 0013072 201.6879 158.3650 12.45299519889434
Epoch (UTC): 19 April 2024 21:50:43
Eccentricity: 0.0013072
inclination: 82.4795°
perigee height: 1474 km
apogee height: 1494 km
right ascension of ascending node: 102.5640°
argument of perigee: 201.6879°
revolutions per day: 12.45299519
mean anomaly at epoch: 158.3650°
orbit number at epoch: 88943

The dashed part of the orbit path shows where the satellite is in the earth's shadow,  

DLR